Change the Weather History Date:

Wednesday, November 13, 2013

  Actual Average Record
Temperature  
Mean Temperature 30 °F -  
Max Temperature 46 °F 42 °F 71 °F (1999)
Min Temperature 15 °F 28 °F 12 °F (2014)
Degree Days  
Heating Degree Days 34    
Moisture  
Dew Point 21 °F    
Average Humidity 68    
Maximum Humidity 79    
Minimum Humidity 53    
Precipitation  
Precipitation 0.00 in - - ()
Sea Level Pressure  
Sea Level Pressure 30.16 in    
Wind  
Wind Speed 11 mph (SSW)    
Max Wind Speed 22 mph    
Max Gust Speed 29 mph    
Visibility 10 miles    
Events      
Averages and records for this station are not official NWS values.
T = Trace of Precipitation, MM = Missing Value Source: NWS Daily Summary

Daily Weather History Graph

Daily Weather History Graph

Search for Another Location

Airport or City:

Trip Planner

Search our weather history database for the weather conditions in past years. The results will help you decide how hot, cold, wet, or windy it might be!

Date:

Astronomy

Nov. 13, 2013 Rise Set
Actual Time 7:03 AM CST 4:48 PM CST
Civil Twilight 6:32 AM CST 5:18 PM CST
Nautical Twilight 5:58 AM CST 5:53 PM CST
Astronomical Twilight 5:24 AM CST 6:27 PM CST
Moon 2:42 PM CST (11/13) 2:50 AM CST (11/13)
Length of Visible Light 10h 46m
Length of Day
9h 44m
Waxing Gibbous, 85% of the Moon is Illuminated
Nov 13
Waxing Gibbous
Nov 17
Full
Nov 25
Last Quarter
Dec 2
New
Dec 9
First Quarter

Hourly Weather History & Observations

Time (CST) Temp. Windchill Dew Point Humidity Pressure Visibility Wind Dir Wind Speed Gust Speed Precip Events Conditions
12:14 AM 15.8 °F 6.1 °F 10.4 °F 79% 30.48 in 10.0 mi SSW 6.9 mph - N/A   Clear
12:34 AM 15.8 °F 7.2 °F 10.4 °F 79% 30.47 in 10.0 mi SSW 5.8 mph - N/A   Clear
12:54 AM 15.8 °F 7.2 °F 10.4 °F 79% 30.46 in 10.0 mi SSW 5.8 mph - N/A   Clear
1:14 AM 17.6 °F 8.2 °F 10.4 °F 73% 30.45 in 10.0 mi SSW 6.9 mph - N/A   Clear
1:34 AM 17.6 °F 7.3 °F 10.4 °F 73% 30.44 in 10.0 mi SSW 8.1 mph - N/A   Clear
1:54 AM 17.6 °F 7.3 °F 10.4 °F 73% 30.43 in 10.0 mi South 8.1 mph - N/A   Clear
2:14 AM 17.6 °F 7.3 °F 10.4 °F 73% 30.43 in 10.0 mi SSW 8.1 mph - N/A   Clear
2:34 AM 17.6 °F 6.4 °F 10.4 °F 73% 30.42 in 10.0 mi South 9.2 mph - N/A   Clear
2:55 AM 17.6 °F 7.3 °F 10.4 °F 73% 30.41 in 10.0 mi South 8.1 mph - N/A   Clear
3:14 AM 17.6 °F 7.3 °F 10.4 °F 73% 30.40 in 10.0 mi South 8.1 mph - N/A   Clear
3:34 AM 17.6 °F 7.3 °F 10.4 °F 73% 30.39 in 10.0 mi South 8.1 mph - N/A   Clear
3:54 AM 17.6 °F 6.4 °F 10.4 °F 73% 30.38 in 10.0 mi South 9.2 mph - N/A   Clear
4:14 AM 17.6 °F 5.0 °F 10.4 °F 73% 30.36 in 10.0 mi South 11.5 mph - N/A   Clear
4:34 AM 17.6 °F 4.3 °F 10.4 °F 73% 30.35 in 10.0 mi South 12.7 mph - N/A   Clear
4:54 AM 17.6 °F 6.4 °F 10.4 °F 73% 30.35 in 10.0 mi South 9.2 mph - N/A   Clear
5:14 AM 17.6 °F 6.4 °F 10.4 °F 73% 30.33 in 10.0 mi South 9.2 mph - N/A   Clear
5:34 AM 17.6 °F 5.7 °F 10.4 °F 73% 30.32 in 10.0 mi South 10.4 mph - N/A   Clear
5:54 AM 17.6 °F 5.0 °F 12.2 °F 79% 30.31 in 10.0 mi South 11.5 mph - N/A   Clear
6:14 AM 17.6 °F 5.0 °F 12.2 °F 79% 30.29 in 10.0 mi South 11.5 mph - N/A   Clear
6:34 AM 17.6 °F 7.3 °F 12.2 °F 79% 30.29 in 10.0 mi South 8.1 mph - N/A   Clear
6:54 AM 17.6 °F 6.4 °F 12.2 °F 79% 30.28 in 10.0 mi South 9.2 mph - N/A   Clear
7:14 AM 17.6 °F 5.7 °F 12.2 °F 79% 30.27 in 10.0 mi South 10.4 mph - N/A   Clear
7:34 AM 19.4 °F 6.6 °F 12.2 °F 74% 30.27 in 10.0 mi South 12.7 mph - N/A   Clear
7:54 AM 19.4 °F 7.9 °F 12.2 °F 74% 30.26 in 10.0 mi South 10.4 mph - N/A   Clear
8:14 AM 21.2 °F 8.9 °F 14.0 °F 74% 30.25 in 10.0 mi South 12.7 mph - N/A   Clear
8:34 AM 23.0 °F 9.6 °F 15.8 °F 74% 30.23 in 10.0 mi South 16.1 mph - N/A   Clear
8:54 AM 24.8 °F 11.9 °F 15.8 °F 69% 30.23 in 10.0 mi South 16.1 mph - N/A   Clear
9:14 AM 26.6 °F 14.3 °F 17.6 °F 69% 30.22 in 10.0 mi SSW 16.1 mph 20.7 mph N/A   Clear
9:34 AM 28.4 °F 16.6 °F 17.6 °F 64% 30.21 in 10.0 mi SSW 16.1 mph 23.0 mph N/A   Clear
9:54 AM 28.4 °F 16.6 °F 19.4 °F 69% 30.20 in 10.0 mi SSW 16.1 mph 20.7 mph N/A   Clear
10:14 AM 30.2 °F 19.3 °F 19.4 °F 64% 30.20 in 10.0 mi SSW 15.0 mph - N/A   Clear
10:34 AM 32.0 °F 21.2 °F 21.2 °F 64% 30.19 in 10.0 mi SSW 16.1 mph - N/A   Clear
10:54 AM 33.8 °F 23.2 °F 21.2 °F 60% 30.18 in 10.0 mi SSW 17.3 mph 25.3 mph N/A   Clear
11:14 AM 33.8 °F 22.8 °F 23.0 °F 65% 30.16 in 10.0 mi SSW 18.4 mph 23.0 mph N/A   Clear
11:34 AM 35.6 °F 25.5 °F 24.8 °F 65% 30.15 in 10.0 mi SSW 17.3 mph 24.2 mph N/A   Clear
11:54 AM 37.4 °F 27.8 °F 24.8 °F 60% 30.13 in 10.0 mi SSW 17.3 mph 24.2 mph N/A   Clear
12:14 PM 37.4 °F 28.2 °F 26.6 °F 65% 30.13 in 10.0 mi SSW 16.1 mph 23.0 mph N/A   Clear
12:34 PM 39.2 °F 30.5 °F 28.4 °F 65% 30.11 in 10.0 mi SSW 16.1 mph 21.9 mph N/A   Clear
12:54 PM 41.0 °F 31.9 °F 28.4 °F 61% 30.09 in 10.0 mi SSW 19.6 mph 23.0 mph N/A   Clear
1:14 PM 42.8 °F 34.0 °F 28.4 °F 57% 30.08 in 10.0 mi SSW 20.7 mph 27.6 mph N/A   Clear
1:34 PM 44.6 °F 36.1 °F 30.2 °F 57% 30.07 in 10.0 mi SSW 21.9 mph 28.8 mph N/A   Clear
1:54 PM 44.6 °F 36.6 °F 30.2 °F 57% 30.05 in 10.0 mi SSW 19.6 mph 25.3 mph N/A   Clear
2:15 PM 44.6 °F 36.9 °F 32.0 °F 61% 30.04 in 10.0 mi SSW 18.4 mph 24.2 mph N/A   Clear
2:34 PM 46.4 °F 39.0 °F 32.0 °F 57% 30.03 in 10.0 mi SSW 19.6 mph 23.0 mph N/A   Clear
2:54 PM 46.4 °F 39.2 °F 32.0 °F 57% 30.01 in 10.0 mi SSW 18.4 mph 26.5 mph N/A   Clear
3:15 PM 46.4 °F 38.7 °F 30.2 °F 53% 30.02 in 10.0 mi SSW 20.7 mph 26.5 mph N/A   Clear
3:34 PM 46.4 °F 40.7 °F 30.2 °F 53% 30.02 in 10.0 mi SSW 12.7 mph 25.3 mph N/A   Clear
3:54 PM 46.4 °F 41.9 °F 30.2 °F 53% 30.02 in 10.0 mi SSW 9.2 mph 19.6 mph N/A   Clear
4:14 PM 44.6 °F 38.4 °F 30.2 °F 57% 30.01 in 10.0 mi SSW 12.7 mph 16.1 mph N/A   Clear
4:34 PM 44.6 °F 38.8 °F 30.2 °F 57% 30.00 in 10.0 mi SSW 11.5 mph - N/A   Clear
4:54 PM 42.8 °F 36.2 °F 30.2 °F 61% 30.00 in 10.0 mi SSW 12.7 mph 18.4 mph N/A   Clear
5:14 PM 42.8 °F 36.2 °F 30.2 °F 61% 30.00 in 10.0 mi SSW 12.7 mph - N/A   Clear
5:34 PM 39.2 °F 33.6 °F 30.2 °F 70% 30.00 in 10.0 mi SSW 8.1 mph - N/A   Clear
5:54 PM 39.2 °F 32.5 °F 30.2 °F 70% 30.00 in 10.0 mi SSW 10.4 mph - N/A   Clear
6:14 PM 37.4 °F 30.8 °F 28.4 °F 70% 30.01 in 10.0 mi SSW 9.2 mph - N/A   Clear
6:34 PM 37.4 °F 29.3 °F 28.4 °F 70% 29.99 in 10.0 mi SSW 12.7 mph - N/A   Clear
6:54 PM 37.4 °F 29.8 °F 28.4 °F 70% 29.99 in 10.0 mi SSW 11.5 mph - N/A   Clear
7:14 PM 37.4 °F 29.3 °F 28.4 °F 70% 30.00 in 10.0 mi SSW 12.7 mph - N/A   Clear
7:34 PM 37.4 °F 30.8 °F 28.4 °F 70% 30.00 in 10.0 mi SSW 9.2 mph 16.1 mph N/A   Clear
7:54 PM 37.4 °F 28.9 °F 26.6 °F 65% 29.99 in 10.0 mi SSW 13.8 mph 19.6 mph N/A   Clear
8:14 PM 37.4 °F 28.5 °F 26.6 °F 65% 29.99 in 10.0 mi SSW 15.0 mph - N/A   Clear
8:34 PM 37.4 °F 29.8 °F 26.6 °F 65% 29.99 in 10.0 mi SSW 11.5 mph 16.1 mph N/A   Clear
8:54 PM 37.4 °F 29.3 °F 26.6 °F 65% 29.98 in 10.0 mi SSW 12.7 mph 17.3 mph N/A   Clear
9:14 PM 35.6 °F 28.6 °F 26.6 °F 70% 29.98 in 10.0 mi SSW 9.2 mph - N/A   Clear
9:34 PM 35.6 °F 27.5 °F 26.6 °F 70% 29.98 in 10.0 mi SSW 11.5 mph - N/A   Clear
9:55 PM 35.6 °F 27.5 °F 26.6 °F 70% 29.97 in 10.0 mi SSW 11.5 mph - N/A   Clear
10:14 PM 33.8 °F 25.3 °F 26.6 °F 75% 29.97 in 10.0 mi SSW 11.5 mph - N/A   Clear
10:34 PM 33.8 °F 25.3 °F 26.6 °F 75% 29.96 in 10.0 mi SSW 11.5 mph - N/A   Clear
10:54 PM 33.8 °F 25.3 °F 24.8 °F 70% 29.95 in 10.0 mi SSW 11.5 mph - N/A   Clear
11:14 PM 33.8 °F 25.3 °F 24.8 °F 70% 29.95 in 10.0 mi SSW 11.5 mph - N/A   Clear
11:34 PM 33.8 °F 25.3 °F 24.8 °F 70% 29.94 in 10.0 mi SSW 11.5 mph - N/A   Clear
11:54 PM 33.8 °F 25.8 °F 24.8 °F 70% 29.94 in 10.0 mi SSW 10.4 mph - N/A   Clear